Time,TemperatureF,DewpointF,PressureIn,WindDirection,WindDirectionDegrees,WindSpeedMPH,WindSpeedGustMPH,Humidity,HourlyPrecipIn,Conditions,Clouds,dailyrainin,SoftwareType,DateUTC
2013-05-02 00:03:00,48.0,43.0,30.48,ESE,111,0.0,0.0,83,0.00,,,0.00,,2013-05-02 04:03:00,
2013-05-02 00:12:00,48.0,43.0,30.48,ESE,111,0.0,0.0,83,0.00,,,0.00,,2013-05-02 04:12:00,
2013-05-02 00:23:00,48.0,43.0,30.48,ESE,111,0.0,0.0,83,0.00,,,0.00,,2013-05-02 04:23:00,
2013-05-02 00:33:00,48.0,43.0,30.48,ESE,112,0.0,0.0,83,0.00,,,0.00,,2013-05-02 04:33:00,
2013-05-02 00:42:00,48.0,43.0,30.48,ESE,112,0.0,0.0,83,0.00,,,0.00,,2013-05-02 04:42:00,
2013-05-02 00:52:00,48.0,43.0,30.48,ESE,112,0.0,0.0,84,0.00,,,0.00,,2013-05-02 04:52:00,
2013-05-02 01:02:00,47.0,43.0,30.47,ESE,112,0.0,0.0,85,0.00,,,0.00,,2013-05-02 05:02:00,
2013-05-02 01:12:00,47.0,43.0,30.47,ESE,112,0.0,0.0,85,0.00,,,0.00,,2013-05-02 05:12:00,
2013-05-02 01:22:00,48.0,43.0,30.47,ESE,105,0.0,0.0,82,0.00,,,0.00,,2013-05-02 05:22:00,
2013-05-02 01:32:00,47.0,42.0,30.47,ESE,105,0.0,0.0,82,0.00,,,0.00,,2013-05-02 05:32:00,
2013-05-02 01:42:00,47.0,42.0,30.47,ESE,105,0.0,0.0,82,0.00,,,0.00,,2013-05-02 05:42:00,
2013-05-02 01:52:00,46.0,41.0,30.47,ESE,106,0.0,0.0,83,0.00,,,0.00,,2013-05-02 05:52:00,
2013-05-02 02:01:00,46.0,41.0,30.47,ESE,106,0.0,0.0,81,0.00,,,0.00,,2013-05-02 06:01:00,
2013-05-02 02:12:00,46.0,41.0,30.47,ESE,106,0.0,0.0,81,0.00,,,0.00,,2013-05-02 06:12:00,
2013-05-02 02:21:00,45.0,40.0,30.47,ESE,106,0.0,0.0,81,0.00,,,0.00,,2013-05-02 06:21:00,
2013-05-02 02:32:00,45.0,40.0,30.47,ESE,107,0.0,0.0,82,0.00,,,0.00,,2013-05-02 06:32:00,
2013-05-02 02:42:00,45.0,40.0,30.47,ESE,107,0.0,0.0,82,0.00,,,0.00,,2013-05-02 06:42:00,
2013-05-02 02:52:00,45.0,40.0,30.46,ESE,107,0.0,0.0,83,0.00,,,0.00,,2013-05-02 06:52:00,
2013-05-02 03:02:00,44.0,39.0,30.46,ESE,107,0.0,0.0,83,0.00,,,0.00,,2013-05-02 07:02:00,
2013-05-02 03:11:00,44.0,39.0,30.46,ESE,107,0.0,0.0,83,0.00,,,0.00,,2013-05-02 07:11:00,
2013-05-02 03:21:00,43.0,38.0,30.46,ESE,107,0.0,0.0,84,0.00,,,0.00,,2013-05-02 07:21:00,
2013-05-02 03:32:00,43.0,39.0,30.46,ESE,107,0.0,0.0,87,0.00,,,0.00,,2013-05-02 07:32:00,
2013-05-02 03:42:00,43.0,39.0,30.46,ESE,107,0.0,0.0,87,0.00,,,0.00,,2013-05-02 07:42:00,
2013-05-02 03:52:00,42.0,38.0,30.45,ESE,107,0.0,0.0,87,0.00,,,0.00,,2013-05-02 07:52:00,
2013-05-02 04:02:00,42.0,38.0,30.45,ESE,107,0.0,0.0,86,0.00,,,0.00,,2013-05-02 08:02:00,
2013-05-02 04:11:00,42.0,38.0,30.45,ESE,107,0.0,0.0,86,0.00,,,0.00,,2013-05-02 08:11:00,
2013-05-02 04:22:00,42.0,38.0,30.45,ESE,108,0.0,0.0,85,0.00,,,0.00,,2013-05-02 08:22:00,
2013-05-02 04:32:00,42.0,38.0,30.45,ESE,107,0.0,0.0,86,0.00,,,0.00,,2013-05-02 08:32:00,
2013-05-02 04:42:00,42.0,38.0,30.45,ESE,107,0.0,0.0,86,0.00,,,0.00,,2013-05-02 08:42:00,
2013-05-02 04:52:00,43.0,40.0,30.45,ESE,107,0.0,0.0,89,0.00,,,0.00,,2013-05-02 08:52:00,
2013-05-02 05:02:00,41.0,37.0,30.45,ESE,107,0.0,0.0,86,0.00,,,0.00,,2013-05-02 09:02:00,
2013-05-02 05:12:00,41.0,37.0,30.45,ESE,107,0.0,0.0,86,0.00,,,0.00,,2013-05-02 09:12:00,
2013-05-02 05:21:00,41.0,37.0,30.45,ESE,108,0.0,0.0,87,0.00,,,0.00,,2013-05-02 09:21:00,
2013-05-02 05:33:00,41.0,37.0,30.44,ESE,107,0.0,0.0,85,0.00,,,0.00,,2013-05-02 09:33:00,
2013-05-02 05:42:00,41.0,37.0,30.44,ESE,107,0.0,0.0,85,0.00,,,0.00,,2013-05-02 09:42:00,
2013-05-02 05:52:00,41.0,38.0,30.44,ESE,107,0.0,0.0,88,0.00,,,0.00,,2013-05-02 09:52:00,
2013-05-02 06:03:00,42.0,38.0,30.44,ESE,107,0.0,0.0,84,0.00,,,0.00,,2013-05-02 10:03:00,
2013-05-02 06:12:00,42.0,38.0,30.44,ESE,107,0.0,0.0,84,0.00,,,0.00,,2013-05-02 10:12:00,
2013-05-02 06:23:00,41.0,38.0,30.44,ESE,107,0.0,0.0,88,0.00,,,0.00,,2013-05-02 10:23:00,
2013-05-02 06:33:00,41.0,37.0,30.45,ESE,106,0.0,0.0,87,0.00,,,0.00,,2013-05-02 10:33:00,
2013-05-02 06:42:00,41.0,37.0,30.45,ESE,106,0.0,0.0,87,0.00,,,0.00,,2013-05-02 10:42:00,
2013-05-02 06:52:00,41.0,38.0,30.45,ESE,106,0.0,0.0,88,0.00,,,0.00,,2013-05-02 10:52:00,
2013-05-02 07:02:00,42.0,38.0,30.46,ESE,106,0.0,0.0,87,0.00,,,0.00,,2013-05-02 11:02:00,
2013-05-02 07:12:00,42.0,38.0,30.46,ESE,106,0.0,0.0,87,0.00,,,0.00,,2013-05-02 11:12:00,
2013-05-02 07:22:00,46.0,41.0,30.46,ESE,107,0.0,0.0,84,0.00,,,0.00,,2013-05-02 11:22:00,
2013-05-02 07:32:00,50.0,42.0,30.47,ESE,107,0.0,0.0,75,0.00,,,0.00,,2013-05-02 11:32:00,
2013-05-02 07:42:00,50.0,42.0,30.47,ESE,107,0.0,0.0,75,0.00,,,0.00,,2013-05-02 11:42:00,
2013-05-02 07:52:00,49.0,42.0,30.47,ESE,107,0.0,0.0,76,0.00,,,0.00,,2013-05-02 11:52:00,
2013-05-02 08:01:00,53.0,44.0,30.47,ESE,107,0.0,0.0,72,0.00,,,0.00,,2013-05-02 12:01:00,
2013-05-02 08:12:00,53.0,44.0,30.47,ESE,107,0.0,0.0,72,0.00,,,0.00,,2013-05-02 12:12:00,
2013-05-02 08:22:00,54.0,44.0,30.47,ESE,108,0.0,0.0,68,0.00,,,0.00,,2013-05-02 12:22:00,
2013-05-02 08:32:00,54.0,44.0,30.47,SW,235,0.0,0.0,69,0.00,,,0.00,,2013-05-02 12:32:00,
2013-05-02 08:42:00,54.0,44.0,30.47,SW,235,0.0,0.0,69,0.00,,,0.00,,2013-05-02 12:42:00,
2013-05-02 08:52:00,57.0,44.0,30.47,WSW,248,0.0,0.0,62,0.00,,,0.00,,2013-05-02 12:52:00,
2013-05-02 09:01:00,58.0,45.0,30.47,West,264,1.0,2.0,61,0.00,,,0.00,,2013-05-02 13:01:00,
2013-05-02 09:11:00,58.0,45.0,30.47,West,264,1.0,2.0,61,0.00,,,0.00,,2013-05-02 13:11:00,
2013-05-02 09:22:00,59.0,45.0,30.47,West,281,2.0,3.0,59,0.00,,,0.00,,2013-05-02 13:22:00,
2013-05-02 09:32:00,60.0,45.0,30.47,SW,226,1.0,2.0,58,0.00,,,0.00,,2013-05-02 13:32:00,
2013-05-02 09:42:00,60.0,45.0,30.47,SW,226,1.0,2.0,58,0.00,,,0.00,,2013-05-02 13:42:00,
2013-05-02 09:52:00,62.0,46.0,30.46,SW,215,1.0,2.0,56,0.00,,,0.00,,2013-05-02 13:52:00,
2013-05-02 10:02:00,64.0,46.0,30.46,SW,235,2.0,2.0,52,0.00,,,0.00,,2013-05-02 14:02:00,
2013-05-02 10:11:00,64.0,46.0,30.46,SW,235,2.0,2.0,52,0.00,,,0.00,,2013-05-02 14:11:00,
2013-05-02 10:22:00,64.0,46.0,30.46,SW,218,0.0,4.0,52,0.00,,,0.00,,2013-05-02 14:22:00,
2013-05-02 10:32:00,67.0,47.0,30.46,WSW,249,1.0,3.0,49,0.00,,,0.00,,2013-05-02 14:32:00,
2013-05-02 10:42:00,67.0,47.0,30.46,WSW,249,1.0,3.0,49,0.00,,,0.00,,2013-05-02 14:42:00,
2013-05-02 10:52:00,67.0,46.0,30.46,SSW,207,1.0,4.0,47,0.00,,,0.00,,2013-05-02 14:52:00,
2013-05-02 11:02:00,68.0,46.0,30.46,WSW,250,1.0,3.0,46,0.00,,,0.00,,2013-05-02 15:02:00,
2013-05-02 11:12:00,68.0,46.0,30.46,WSW,250,1.0,3.0,46,0.00,,,0.00,,2013-05-02 15:12:00,
2013-05-02 11:22:00,70.0,45.0,30.46,SW,229,2.0,6.0,41,0.00,,,0.00,,2013-05-02 15:22:00,
2013-05-02 11:33:00,69.0,43.0,30.45,East,91,1.0,3.0,39,0.00,,,0.00,,2013-05-02 15:33:00,
2013-05-02 11:43:00,69.0,43.0,30.45,East,91,1.0,3.0,39,0.00,,,0.00,,2013-05-02 15:43:00,
2013-05-02 12:03:00,71.0,40.0,30.45,ESE,120,1.0,4.0,33,0.00,,,0.00,,2013-05-02 16:03:00,
2013-05-02 12:13:00,71.0,40.0,30.45,ESE,120,1.0,4.0,33,0.00,,,0.00,,2013-05-02 16:13:00,
2013-05-02 12:22:00,71.0,43.0,30.43,NNE,30,1.0,4.0,37,0.00,,,0.00,,2013-05-02 16:22:00,
2013-05-02 12:32:00,73.0,42.0,30.43,East,88,3.0,4.0,33,0.00,,,0.00,,2013-05-02 16:32:00,
2013-05-02 12:43:00,73.0,42.0,30.43,East,88,3.0,4.0,33,0.00,,,0.00,,2013-05-02 16:43:00,
2013-05-02 12:52:00,73.0,41.0,30.42,SSE,155,4.0,6.0,32,0.00,,,0.00,,2013-05-02 16:52:00,
2013-05-02 13:02:00,72.0,40.0,30.42,NNE,18,6.0,9.0,31,0.00,,,0.00,,2013-05-02 17:02:00,
2013-05-02 13:12:00,72.0,40.0,30.42,NNE,18,6.0,9.0,31,0.00,,,0.00,,2013-05-02 17:12:00,
2013-05-02 13:22:00,73.0,41.0,30.41,SSW,200,3.0,7.0,32,0.00,,,0.00,,2013-05-02 17:22:00,
2013-05-02 13:32:00,75.0,42.0,30.40,NNW,342,1.0,5.0,31,0.00,,,0.00,,2013-05-02 17:32:00,
2013-05-02 13:42:00,75.0,42.0,30.40,NNW,342,1.0,5.0,31,0.00,,,0.00,,2013-05-02 17:42:00,
2013-05-02 13:52:00,75.0,41.0,30.40,SSW,205,3.0,5.0,30,0.00,,,0.00,,2013-05-02 17:52:00,
2013-05-02 14:01:00,74.0,41.0,30.39,ENE,76,5.0,11.0,30,0.00,,,0.00,,2013-05-02 18:01:00,
2013-05-02 14:12:00,74.0,41.0,30.39,ENE,76,5.0,11.0,30,0.00,,,0.00,,2013-05-02 18:12:00,
2013-05-02 14:22:00,75.0,42.0,30.39,SSE,159,4.0,8.0,31,0.00,,,0.00,,2013-05-02 18:22:00,
2013-05-02 14:32:00,75.0,41.0,30.39,ENE,68,4.0,10.0,29,0.00,,,0.00,,2013-05-02 18:32:00,
2013-05-02 14:42:00,75.0,41.0,30.39,ENE,68,4.0,10.0,29,0.00,,,0.00,,2013-05-02 18:42:00,
2013-05-02 14:52:00,76.0,42.0,30.38,East,81,2.0,6.0,30,0.00,,,0.00,,2013-05-02 18:52:00,
2013-05-02 15:01:00,76.0,41.0,30.38,ESE,109,5.0,8.0,29,0.00,,,0.00,,2013-05-02 19:01:00,
2013-05-02 15:11:00,76.0,41.0,30.38,ESE,109,5.0,8.0,29,0.00,,,0.00,,2013-05-02 19:11:00,
2013-05-02 15:22:00,77.0,41.0,30.37,ENE,69,1.0,5.0,28,0.00,,,0.00,,2013-05-02 19:22:00,
2013-05-02 15:32:00,76.0,41.0,30.36,NE,56,5.0,11.0,29,0.00,,,0.00,,2013-05-02 19:32:00,
2013-05-02 15:42:00,76.0,41.0,30.36,NE,56,5.0,11.0,29,0.00,,,0.00,,2013-05-02 19:42:00,
2013-05-02 15:52:00,76.0,41.0,30.35,NE,56,4.0,11.0,29,0.00,,,0.00,,2013-05-02 19:52:00,
2013-05-02 16:02:00,76.0,41.0,30.35,ENE,72,3.0,7.0,29,0.00,,,0.00,,2013-05-02 20:02:00,
2013-05-02 16:11:00,76.0,41.0,30.35,ENE,72,3.0,7.0,29,0.00,,,0.00,,2013-05-02 20:11:00,
2013-05-02 16:22:00,77.0,44.0,30.35,South,184,3.0,6.0,31,0.00,,,0.00,,2013-05-02 20:22:00,
2013-05-02 16:32:00,77.0,41.0,30.34,ESE,107,1.0,8.0,28,0.00,,,0.00,,2013-05-02 20:32:00,
2013-05-02 16:42:00,77.0,41.0,30.34,ESE,107,1.0,8.0,28,0.00,,,0.00,,2013-05-02 20:42:00,
2013-05-02 16:52:00,77.0,41.0,30.33,SSE,158,3.0,7.0,28,0.00,,,0.00,,2013-05-02 20:52:00,
2013-05-02 17:01:00,76.0,41.0,30.33,WSW,238,2.0,7.0,28,0.00,,,0.00,,2013-05-02 21:01:00,
2013-05-02 17:12:00,76.0,41.0,30.33,WSW,238,2.0,7.0,28,0.00,,,0.00,,2013-05-02 21:12:00,
2013-05-02 17:21:00,77.0,42.0,30.32,NE,56,2.0,7.0,29,0.00,,,0.00,,2013-05-02 21:21:00,
2013-05-02 17:33:00,77.0,41.0,30.32,East,79,3.0,5.0,28,0.00,,,0.00,,2013-05-02 21:33:00,
2013-05-02 17:42:00,77.0,41.0,30.32,East,79,3.0,5.0,28,0.00,,,0.00,,2013-05-02 21:42:00,
2013-05-02 17:53:00,77.0,41.0,30.32,SW,217,1.0,4.0,28,0.00,,,0.00,,2013-05-02 21:53:00,
2013-05-02 18:03:00,77.0,41.0,30.32,ESE,120,2.0,4.0,28,0.00,,,0.00,,2013-05-02 22:03:00,
2013-05-02 18:12:00,77.0,41.0,30.32,ESE,120,2.0,4.0,28,0.00,,,0.00,,2013-05-02 22:12:00,
2013-05-02 18:22:00,78.0,43.0,30.32,ENE,76,3.0,10.0,29,0.00,,,0.00,,2013-05-02 22:22:00,
2013-05-02 18:32:00,75.0,44.0,30.31,SE,145,6.0,10.0,33,0.00,,,0.00,,2013-05-02 22:32:00,
2013-05-02 18:42:00,75.0,44.0,30.31,SE,145,6.0,10.0,33,0.00,,,0.00,,2013-05-02 22:42:00,
2013-05-02 18:52:00,74.0,45.0,30.31,SW,218,3.0,10.0,35,0.00,,,0.00,,2013-05-02 22:52:00,
2013-05-02 19:02:00,72.0,44.0,30.31,South,181,6.0,9.0,36,0.00,,,0.00,,2013-05-02 23:02:00,
2013-05-02 19:11:00,72.0,44.0,30.31,South,181,6.0,9.0,36,0.00,,,0.00,,2013-05-02 23:11:00,
2013-05-02 19:22:00,71.0,44.0,30.32,SSW,194,2.0,7.0,38,0.00,,,0.00,,2013-05-02 23:22:00,
2013-05-02 19:32:00,70.0,44.0,30.32,SSE,155,2.0,3.0,39,0.00,,,0.00,,2013-05-02 23:32:00,
2013-05-02 19:42:00,70.0,44.0,30.32,SSE,155,2.0,3.0,39,0.00,,,0.00,,2013-05-02 23:42:00,
2013-05-02 19:51:00,69.0,43.0,30.32,SE,129,3.0,7.0,39,0.00,,,0.00,,2013-05-02 23:51:00,
2013-05-02 20:01:00,68.0,43.0,30.32,SSE,153,2.0,5.0,40,0.00,,,0.00,,2013-05-03 00:01:00,
2013-05-02 20:11:00,68.0,43.0,30.32,SSE,153,2.0,5.0,40,0.00,,,0.00,,2013-05-03 00:11:00,
2013-05-02 20:22:00,68.0,43.0,30.32,SSE,158,3.0,5.0,40,0.00,,,0.00,,2013-05-03 00:22:00,
2013-05-02 20:32:00,67.0,43.0,30.33,SE,131,1.0,4.0,41,0.00,,,0.00,,2013-05-03 00:32:00,
2013-05-02 20:42:00,67.0,43.0,30.33,SE,131,1.0,4.0,41,0.00,,,0.00,,2013-05-03 00:42:00,
2013-05-02 20:52:00,67.0,43.0,30.35,East,90,2.0,4.0,42,0.00,,,0.00,,2013-05-03 00:52:00,
2013-05-02 21:01:00,65.0,46.0,30.37,East,86,4.0,8.0,51,0.00,,,0.00,,2013-05-03 01:01:00,
2013-05-02 21:11:00,65.0,46.0,30.37,East,86,4.0,8.0,51,0.00,,,0.00,,2013-05-03 01:11:00,
2013-05-02 21:21:00,63.0,47.0,30.38,ENE,67,4.0,8.0,56,0.00,,,0.00,,2013-05-03 01:21:00,
2013-05-02 21:32:00,61.0,46.0,30.40,East,82,3.0,7.0,58,0.00,,,0.00,,2013-05-03 01:32:00,
2013-05-02 21:42:00,61.0,46.0,30.40,East,82,3.0,7.0,58,0.00,,,0.00,,2013-05-03 01:42:00,
2013-05-02 21:52:00,61.0,46.0,30.40,SE,128,3.0,6.0,58,0.00,,,0.00,,2013-05-03 01:52:00,
2013-05-02 22:01:00,60.0,46.0,30.41,NE,56,2.0,7.0,59,0.00,,,0.00,,2013-05-03 02:01:00,
2013-05-02 22:11:00,60.0,46.0,30.41,NE,56,2.0,7.0,59,0.00,,,0.00,,2013-05-03 02:11:00,
2013-05-02 22:22:00,60.0,46.0,30.42,East,79,2.0,5.0,60,0.00,,,0.00,,2013-05-03 02:22:00,
2013-05-02 22:32:00,59.0,45.0,30.42,SSW,212,2.0,7.0,60,0.00,,,0.00,,2013-05-03 02:32:00,
2013-05-02 22:42:00,59.0,45.0,30.42,SSW,212,2.0,7.0,60,0.00,,,0.00,,2013-05-03 02:42:00,
2013-05-02 22:52:00,59.0,45.0,30.42,SE,129,2.0,5.0,60,0.00,,,0.00,,2013-05-03 02:52:00,
2013-05-02 23:01:00,59.0,45.0,30.42,NW,326,1.0,4.0,60,0.00,,,0.00,,2013-05-03 03:01:00,
2013-05-02 23:11:00,59.0,45.0,30.42,NW,326,1.0,4.0,60,0.00,,,0.00,,2013-05-03 03:11:00,
2013-05-02 23:21:00,58.0,44.0,30.42,SW,233,2.0,10.0,60,0.00,,,0.00,,2013-05-03 03:21:00,
2013-05-02 23:33:00,57.0,42.0,30.43,East,79,5.0,11.0,58,0.00,,,0.00,,2013-05-03 03:33:00,
2013-05-02 23:43:00,57.0,42.0,30.43,East,79,5.0,11.0,58,0.00,,,0.00,,2013-05-03 03:43:00,
2013-05-02 23:53:00,56.0,41.0,30.44,ENE,75,5.0,10.0,56,0.00,,,0.00,,2013-05-03 03:53:00,